Date,TemperatureHighF,TemperatureAvgF,TemperatureLowF,DewpointHighF,DewpointAvgF,DewpointLowF,HumidityHigh,HumidityAvg,HumidityLow,PressureMaxIn,PressureMinIn,WindSpeedMaxMPH,WindSpeedAvgMPH,GustSpeedMaxMPH,PrecipitationSumIn
2013-1-1,41,36,32,40,33,18,99,90,47,0.00,40.00,8,4,18,0.00
2013-1-2,32,29,28,32,28,26,98,96,92,0.00,40.00,4,3,9,0.00
2013-1-3,37,29,25,27,24,19,96,81,57,0.00,40.00,4,2,8,0.00
2013-1-4,34,26,18,24,18,15,91,73,61,0.00,40.00,5,3,15,0.00
2013-1-5,42,30,18,24,20,15,91,68,40,0.00,40.00,4,2,8,0.00
2013-1-6,40,35,32,31,27,21,90,74,53,0.00,40.00,5,3,15,0.00
2013-1-7,48,34,26,25,21,14,79,62,32,0.00,40.00,4,3,15,0.00
2013-1-8,51,38,27,32,26,19,77,62,35,0.00,40.00,6,2,14,0.09
2013-1-9,52,45,35,49,40,29,99,83,66,0.00,40.00,4,1,7,0.15
2013-1-10,64,52,41,50,46,41,99,81,57,0.00,40.00,10,3,17,0.01
2013-1-11,61,57,52,56,51,44,94,82,71,0.00,40.00,10,6,22,0.03
2013-1-12,68,62,58,61,58,56,98,89,74,0.00,40.00,6,4,16,0.04
2013-1-13,65,60,57,57,53,48,98,79,60,0.00,40.00,6,3,16,0.30
2013-1-14,57,41,32,56,40,31,98,97,95,0.00,40.00,7,4,15,1.22
2013-1-15,38,34,32,37,33,32,98,97,96,0.00,40.00,7,3,15,1.15
2013-1-16,49,41,33,49,40,32,100,98,96,0.00,40.00,4,2,12,1.39
2013-1-17,38,31,25,38,29,24,99,92,76,0.00,40.00,6,3,11,0.59
2013-1-18,48,28,20,37,25,18,95,88,65,0.00,40.00,3,2,7,0.44
2013-1-19,46,33,19,33,24,17,93,74,51,0.00,40.00,7,3,15,0.33
2013-1-20,51,39,28,32,25,10,79,57,38,0.00,40.00,7,4,17,0.02
2013-1-21,42,30,20,21,13,3,80,53,27,0.00,40.00,10,4,21,0.00
2013-1-22,25,17,11,3,-4,-9,55,39,25,0.00,40.00,6,4,19,0.00
2013-1-23,32,22,12,17,5,-4,56,49,40,0.00,40.00,5,3,12,0.00
2013-1-24,36,23,14,25,5,-6,65,48,28,0.00,40.00,8,5,21,0.00
2013-1-25,30,24,13,29,17,-1,97,75,43,0.00,40.00,8,4,20,0.00
2013-1-26,37,28,23,30,25,21,97,87,75,0.00,40.00,5,3,11,0.30
2013-1-27,47,33,18,35,24,16,92,72,45,0.00,40.00,3,2,9,0.11
2013-1-28,51,44,37,47,38,31,96,83,65,0.00,40.00,8,4,19,0.18
2013-1-29,65,56,48,55,48,45,94,77,60,0.00,40.00,8,5,19,0.18
2013-1-30,62,55,41,54,50,38,98,85,71,0.00,40.00,11,6,31,2.33
2013-1-31,41,30,26,38,19,16,90,65,55,0.00,40.00,7,6,26,0.49